Year,Month,Day,Hour,Minute,Value (Times are PST for barometer in hPa)
2014,09,22,00,00,1011.65
2014,09,22,00,01,1011.68
2014,09,22,00,02,1011.65
2014,09,22,00,03,1011.62
2014,09,22,00,04,1011.62
2014,09,22,00,05,1011.55
2014,09,22,00,06,1011.58
2014,09,22,00,07,1011.55
2014,09,22,00,08,1011.55
2014,09,22,00,09,1011.55
2014,09,22,00,10,1011.55
2014,09,22,00,11,1011.58
2014,09,22,00,12,1011.62
2014,09,22,00,13,1011.62
2014,09,22,00,14,1011.62
2014,09,22,00,15,1011.65
2014,09,22,00,16,1011.65
2014,09,22,00,17,1011.68
2014,09,22,00,18,1011.72
2014,09,22,00,19,1011.72
2014,09,22,00,20,1011.72
2014,09,22,00,21,1011.68
2014,09,22,00,22,1011.65
2014,09,22,00,23,1011.65
2014,09,22,00,24,1011.65
2014,09,22,00,25,1011.65
2014,09,22,00,26,1011.68
2014,09,22,00,27,1011.72
2014,09,22,00,28,1011.72
2014,09,22,00,29,1011.75
2014,09,22,00,30,1011.72
2014,09,22,00,31,1011.75
2014,09,22,00,32,1011.79
2014,09,22,00,33,1011.75
2014,09,22,00,34,1011.75
2014,09,22,00,35,1011.79
2014,09,22,00,36,1011.75
2014,09,22,00,37,1011.72
2014,09,22,00,38,1011.72
2014,09,22,00,39,1011.72
2014,09,22,00,40,1011.68
2014,09,22,00,41,1011.68
2014,09,22,00,42,1011.72
2014,09,22,00,43,1011.72
2014,09,22,00,44,1011.72
2014,09,22,00,45,1011.75
2014,09,22,00,46,1011.72
2014,09,22,00,47,1011.75
2014,09,22,00,48,1011.75
2014,09,22,00,49,1011.72
2014,09,22,00,50,1011.72
2014,09,22,00,51,1011.72
2014,09,22,00,52,1011.79
2014,09,22,00,53,1011.72
2014,09,22,00,54,1011.79
2014,09,22,00,55,1011.75
2014,09,22,00,56,1011.75
2014,09,22,00,57,1011.75
2014,09,22,00,58,1011.75
2014,09,22,00,59,1011.75
2014,09,22,01,00,1011.79
2014,09,22,01,01,1011.82
2014,09,22,01,02,1011.85
2014,09,22,01,03,1011.89
2014,09,22,01,04,1011.89
2014,09,22,01,05,1011.92
2014,09,22,01,06,1011.92
2014,09,22,01,07,1011.95
2014,09,22,01,08,1012.02
2014,09,22,01,09,1012.02
2014,09,22,01,10,1011.99
2014,09,22,01,11,1012.06
2014,09,22,01,12,1012.02
2014,09,22,01,13,1012.06
2014,09,22,01,14,1012.06
2014,09,22,01,15,1012.06
2014,09,22,01,16,1012.06
2014,09,22,01,17,1012.02
2014,09,22,01,18,1012.06
2014,09,22,01,19,1012.12
2014,09,22,01,20,1012.06
2014,09,22,01,21,1012.09
2014,09,22,01,22,1012.12
2014,09,22,01,23,1012.09
2014,09,22,01,24,1012.09
2014,09,22,01,25,1012.19
2014,09,22,01,26,1012.16
2014,09,22,01,27,1012.19
2014,09,22,01,28,1012.23
2014,09,22,01,29,1012.19
2014,09,22,01,30,1012.19
2014,09,22,01,31,1012.19
2014,09,22,01,32,1012.23
2014,09,22,01,33,1012.19
2014,09,22,01,34,1012.23
2014,09,22,01,35,1012.23
2014,09,22,01,36,1012.26
2014,09,22,01,37,1012.26
2014,09,22,01,38,1012.26
2014,09,22,01,39,1012.23
2014,09,22,01,40,1012.26
2014,09,22,01,41,1012.26
2014,09,22,01,42,1012.26
2014,09,22,01,43,1012.19
2014,09,22,01,44,1012.23
2014,09,22,01,45,1012.19
2014,09,22,01,46,1012.26
2014,09,22,01,47,1012.26
2014,09,22,01,48,1012.26
2014,09,22,01,49,1012.33
2014,09,22,01,50,1012.29
2014,09,22,01,51,1012.29
2014,09,22,01,52,1012.29
2014,09,22,01,53,1012.29
2014,09,22,01,54,1012.29
2014,09,22,01,55,1012.26
2014,09,22,01,56,1012.33
2014,09,22,01,57,1012.29
2014,09,22,01,58,1012.29
2014,09,22,01,59,1012.33
2014,09,22,02,00,1012.29
2014,09,22,02,01,1012.29
2014,09,22,02,02,1012.33
2014,09,22,02,03,1012.33
2014,09,22,02,04,1012.29
2014,09,22,02,05,1012.29
2014,09,22,02,06,1012.33
2014,09,22,02,07,1012.33
2014,09,22,02,08,1012.33
2014,09,22,02,09,1012.26
2014,09,22,02,10,1012.36
2014,09,22,02,11,1012.36
2014,09,22,02,12,1012.40
2014,09,22,02,13,1012.46
2014,09,22,02,14,1012.46
2014,09,22,02,15,1012.46
2014,09,22,02,16,1012.46
2014,09,22,02,17,1012.46
2014,09,22,02,18,1012.46
2014,09,22,02,19,1012.50
2014,09,22,02,20,1012.53
2014,09,22,02,21,1012.50
2014,09,22,02,22,1012.50
2014,09,22,02,23,1012.50
2014,09,22,02,24,1012.53
2014,09,22,02,25,1012.53
2014,09,22,02,26,1012.50
2014,09,22,02,27,1012.50
2014,09,22,02,28,1012.56
2014,09,22,02,29,1012.56
2014,09,22,02,30,1012.56
2014,09,22,02,31,1012.56
2014,09,22,02,32,1012.60
2014,09,22,02,33,1012.60
2014,09,22,02,34,1012.67
2014,09,22,02,35,1012.63
2014,09,22,02,36,1012.67
2014,09,22,02,37,1012.67
2014,09,22,02,38,1012.70
2014,09,22,02,39,1012.73
2014,09,22,02,40,1012.73
2014,09,22,02,41,1012.70
2014,09,22,02,42,1012.70
2014,09,22,02,43,1012.73
2014,09,22,02,44,1012.70
2014,09,22,02,45,1012.77
2014,09,22,02,46,1012.73
2014,09,22,02,47,1012.73
2014,09,22,02,48,1012.77
2014,09,22,02,49,1012.73
2014,09,22,02,50,1012.70
2014,09,22,02,51,1012.67
2014,09,22,02,52,1012.60
2014,09,22,02,53,1012.56
2014,09,22,02,54,1012.53
2014,09,22,02,55,1012.53
2014,09,22,02,56,1012.53
2014,09,22,02,57,1012.50
2014,09,22,02,58,1012.60
2014,09,22,02,59,1012.56
2014,09,22,03,00,1012.63
2014,09,22,03,01,1012.70
2014,09,22,03,02,1012.67
2014,09,22,03,03,1012.73
2014,09,22,03,04,1012.70
2014,09,22,03,05,1012.70
2014,09,22,03,06,1012.73
2014,09,22,03,07,1012.73
2014,09,22,03,08,1012.73
2014,09,22,03,09,1012.73
2014,09,22,03,10,1012.80
2014,09,22,03,11,1012.87
2014,09,22,03,12,1012.87
2014,09,22,03,13,1012.87
2014,09,22,03,14,1012.94
2014,09,22,03,15,1012.94
2014,09,22,03,16,1012.90
2014,09,22,03,17,1012.87
2014,09,22,03,18,1012.87
2014,09,22,03,19,1012.84
2014,09,22,03,20,1012.80
2014,09,22,03,21,1012.84
2014,09,22,03,22,1012.87
2014,09,22,03,23,1012.87
2014,09,22,03,24,1012.87
2014,09,22,03,25,1012.90
2014,09,22,03,26,1012.97
2014,09,22,03,27,1013.00
2014,09,22,03,28,1013.04
2014,09,22,03,29,1013.07
2014,09,22,03,30,1013.17
2014,09,22,03,31,1013.17
2014,09,22,03,32,1013.21
2014,09,22,03,33,1013.28
2014,09,22,03,34,1013.31
2014,09,22,03,35,1013.28
2014,09,22,03,36,1013.28
2014,09,22,03,37,1013.31
2014,09,22,03,38,1013.28
2014,09,22,03,39,1013.28
2014,09,22,03,40,1013.28
2014,09,22,03,41,1013.34
2014,09,22,03,42,1013.38
2014,09,22,03,43,1013.38
2014,09,22,03,44,1013.38
2014,09,22,03,45,1013.31
2014,09,22,03,46,1013.34
2014,09,22,03,47,1013.31
2014,09,22,03,48,1013.28
2014,09,22,03,49,1013.24
2014,09,22,03,50,1013.17
2014,09,22,03,51,1013.17
2014,09,22,03,52,1013.14
2014,09,22,03,53,1013.14
2014,09,22,03,54,1013.11
2014,09,22,03,55,1013.17
2014,09,22,03,56,1013.17
2014,09,22,03,57,1013.21
2014,09,22,03,58,1013.24
2014,09,22,03,59,1013.24
2014,09,22,04,00,1013.24
2014,09,22,04,01,1013.31
2014,09,22,04,02,1013.31
2014,09,22,04,03,1013.28
2014,09,22,04,04,1013.28
2014,09,22,04,05,1013.31
2014,09,22,04,06,1013.34
2014,09,22,04,07,1013.34
2014,09,22,04,08,1013.34
2014,09,22,04,09,1013.38
2014,09,22,04,10,1013.41
2014,09,22,04,11,1013.41
2014,09,22,04,12,1013.44
2014,09,22,04,13,1013.41
2014,09,22,04,14,1013.48
2014,09,22,04,15,1013.48
2014,09,22,04,16,1013.51
2014,09,22,04,17,1013.48
2014,09,22,04,18,1013.48
2014,09,22,04,19,1013.44
2014,09,22,04,20,1013.41
2014,09,22,04,21,1013.41
2014,09,22,04,22,1013.41
2014,09,22,04,23,1013.41
2014,09,22,04,24,1013.48
2014,09,22,04,25,1013.51
2014,09,22,04,26,1013.55
2014,09,22,04,27,1013.58
2014,09,22,04,28,1013.55
2014,09,22,04,29,1013.55
2014,09,22,04,30,1013.51
2014,09,22,04,31,1013.51
2014,09,22,04,32,1013.55
2014,09,22,04,33,1013.44
2014,09,22,04,34,1013.44
2014,09,22,04,35,1013.48
2014,09,22,04,36,1013.48
2014,09,22,04,37,1013.48
2014,09,22,04,38,1013.44
2014,09,22,04,39,1013.50
2014,09,22,04,40,1013.51
2014,09,22,04,41,1013.51
2014,09,22,04,42,1013.55
2014,09,22,04,43,1013.49
2014,09,22,04,44,1013.48
2014,09,22,04,45,1013.44
2014,09,22,04,46,1013.44
2014,09,22,04,47,1013.41
2014,09,22,04,48,1013.41
2014,09,22,04,49,1013.38
2014,09,22,04,50,1013.34
2014,09,22,04,51,1013.38
2014,09,22,04,52,1013.41
2014,09,22,04,53,1013.41
2014,09,22,04,54,1013.38
2014,09,22,04,55,1013.34
2014,09,22,04,56,1013.31
2014,09,22,04,57,1013.37
2014,09,22,04,58,1013.34
2014,09,22,04,59,1013.34
2014,09,22,05,00,1013.34
2014,09,22,05,01,1013.31
2014,09,22,05,02,1013.31
2014,09,22,05,03,1013.28
2014,09,22,05,04,1013.28
2014,09,22,05,05,1013.24
2014,09,22,05,06,1013.24
2014,09,22,05,07,1013.28
2014,09,22,05,08,1013.28
2014,09,22,05,09,1013.31
2014,09,22,05,10,1013.34
2014,09,22,05,11,1013.38
2014,09,22,05,12,1013.38
2014,09,22,05,13,1013.38
2014,09,22,05,14,1013.38
2014,09,22,05,15,1013.41
2014,09,22,05,16,1013.35
2014,09,22,05,17,1013.31
2014,09,22,05,18,1013.28
2014,09,22,05,19,1013.31
2014,09,22,05,20,1013.31
2014,09,22,05,21,1013.38
2014,09,22,05,22,1013.41
2014,09,22,05,23,1013.48
2014,09,22,05,24,1013.48
2014,09,22,05,25,1013.44
2014,09,22,05,26,1013.48
2014,09,22,05,27,1013.51
2014,09,22,05,28,1013.48
2014,09,22,05,29,1013.44
2014,09,22,05,30,1013.48
2014,09,22,05,31,1013.48
2014,09,22,05,32,1013.44
2014,09,22,05,33,1013.44
2014,09,22,05,34,1013.41
2014,09,22,05,35,1013.38
2014,09,22,05,36,1013.41
2014,09,22,05,37,1013.38
2014,09,22,05,38,1013.34
2014,09,22,05,39,1013.38
2014,09,22,05,40,1013.41
2014,09,22,05,41,1013.41
2014,09,22,05,42,1013.41
2014,09,22,05,43,1013.44
2014,09,22,05,44,1013.44
2014,09,22,05,45,1013.41
2014,09,22,05,46,1013.44
2014,09,22,05,47,1013.48
2014,09,22,05,48,1013.48
2014,09,22,05,49,1013.48
2014,09,22,05,50,1013.51
2014,09,22,05,51,1013.48
2014,09,22,05,52,1013.48
2014,09,22,05,53,1013.44
2014,09,22,05,54,1013.48
2014,09,22,05,55,1013.44
2014,09,22,05,56,1013.44
2014,09,22,05,57,1013.38
2014,09,22,05,58,1013.38
2014,09,22,05,59,1013.38
2014,09,22,06,00,1013.41
2014,09,22,06,01,1013.38
2014,09,22,06,02,1013.34
2014,09,22,06,03,1013.31
2014,09,22,06,04,1013.31
2014,09,22,06,05,1013.28
2014,09,22,06,06,1013.28
2014,09,22,06,07,1013.21
2014,09,22,06,08,1013.21
2014,09,22,06,09,1013.24
2014,09,22,06,10,1013.24
2014,09,22,06,11,1013.24
2014,09,22,06,12,1013.28
2014,09,22,06,13,1013.28
2014,09,22,06,14,1013.34
2014,09,22,06,15,1013.34
2014,09,22,06,16,1013.34
2014,09,22,06,17,1013.34
2014,09,22,06,18,1013.38
2014,09,22,06,19,1013.38
2014,09,22,06,20,1013.38
2014,09,22,06,21,1013.41
2014,09,22,06,22,1013.41
2014,09,22,06,23,1013.48
2014,09,22,06,24,1013.48
2014,09,22,06,25,1013.48
2014,09,22,06,26,1013.51
2014,09,22,06,27,1013.51
2014,09,22,06,28,1013.51
2014,09,22,06,29,1013.51
2014,09,22,06,30,1013.51
2014,09,22,06,31,1013.48
2014,09,22,06,32,1013.42
2014,09,22,06,33,1013.34
2014,09,22,06,34,1013.28
2014,09,22,06,35,1013.24
2014,09,22,06,36,1013.21
2014,09,22,06,37,1013.17
2014,09,22,06,38,1013.14
2014,09,22,06,39,1013.17
2014,09,22,06,40,1013.17
2014,09,22,06,41,1013.21
2014,09,22,06,42,1013.24
2014,09,22,06,43,1013.30
2014,09,22,06,44,1013.37
2014,09,22,06,45,1013.41
2014,09,22,06,46,1013.44
2014,09,22,06,47,1013.38
2014,09,22,06,48,1013.34
2014,09,22,06,49,1013.34
2014,09,22,06,50,1013.31
2014,09,22,06,51,1013.31
2014,09,22,06,52,1013.34
2014,09,22,06,53,1013.28
2014,09,22,06,54,1013.31
2014,09,22,06,55,1013.37
2014,09,22,06,56,1013.38
2014,09,22,06,57,1013.38
2014,09,22,06,58,1013.38
2014,09,22,06,59,1013.34
2014,09,22,07,00,1013.28
2014,09,22,07,01,1013.34
2014,09,22,07,02,1013.31
2014,09,22,07,03,1013.40
2014,09,22,07,04,1013.48
2014,09,22,07,05,1013.48
2014,09,22,07,06,1013.48
2014,09,22,07,07,1013.48
2014,09,22,07,08,1013.44
2014,09,22,07,09,1013.41
2014,09,22,07,10,1013.44
2014,09,22,07,11,1013.50
2014,09,22,07,12,1013.57
2014,09,22,07,13,1013.58
2014,09,22,07,14,1013.61
2014,09,22,07,15,1013.65
2014,09,22,07,16,1013.59
2014,09,22,07,17,1013.58
2014,09,22,07,18,1013.55
2014,09,22,07,19,1013.55
2014,09,22,07,20,1013.51
2014,09,22,07,21,1013.51
2014,09,22,07,22,1013.48
2014,09,22,07,23,1013.44
2014,09,22,07,24,1013.41
2014,09,22,07,25,1013.38
2014,09,22,07,26,1013.41
2014,09,22,07,27,1013.38
2014,09,22,07,28,1013.41
2014,09,22,07,29,1013.48
2014,09,22,07,30,1013.48
2014,09,22,07,31,1013.42
2014,09,22,07,32,1013.48
2014,09,22,07,33,1013.44
2014,09,22,07,34,1013.48
2014,09,22,07,35,1013.57
2014,09,22,07,36,1013.61
2014,09,22,07,37,1013.61
2014,09,22,07,38,1013.65
2014,09,22,07,39,1013.61
2014,09,22,07,40,1013.58
2014,09,22,07,41,1013.58
2014,09,22,07,42,1013.58
2014,09,22,07,43,1013.58
2014,09,22,07,44,1013.58
2014,09,22,07,45,1013.61
2014,09,22,07,46,1013.67
2014,09,22,07,47,1013.68
2014,09,22,07,48,1013.68
2014,09,22,07,49,1013.68
2014,09,22,07,50,1013.65
2014,09,22,07,51,1013.58
2014,09,22,07,52,1013.52
2014,09,22,07,53,1013.51
2014,09,22,07,54,1013.44
2014,09,22,07,55,1013.41
2014,09,22,07,56,1013.38
2014,09,22,07,57,1013.34
2014,09,22,07,58,1013.40
2014,09,22,07,59,1013.41
2014,09,22,08,00,1013.41
2014,09,22,08,01,1013.44
2014,09,22,08,02,1013.48
2014,09,22,08,03,1013.44
2014,09,22,08,04,1013.48
2014,09,22,08,05,1013.44
2014,09,22,08,06,1013.41
2014,09,22,08,07,1013.38
2014,09,22,08,08,1013.34
2014,09,22,08,09,1013.38
2014,09,22,08,10,1013.38
2014,09,22,08,11,1013.38
2014,09,22,08,12,1013.44
2014,09,22,08,13,1013.48
2014,09,22,08,14,1013.48
2014,09,22,08,15,1013.44
2014,09,22,08,16,1013.55
2014,09,22,08,17,1013.48
2014,09,22,08,18,1013.51
2014,09,22,08,19,1013.51
2014,09,22,08,20,1013.48
2014,09,22,08,21,1013.48
2014,09,22,08,22,1013.51
2014,09,22,08,23,1013.48
2014,09,22,08,24,1013.48
2014,09,22,08,25,1013.51
2014,09,22,08,26,1013.48
2014,09,22,08,27,1013.55
2014,09,22,08,28,1013.55
2014,09,22,08,29,1013.58
2014,09,22,08,30,1013.58
2014,09,22,08,31,1013.65
2014,09,22,08,32,1013.65
2014,09,22,08,33,1013.68
2014,09,22,08,34,1013.75
2014,09,22,08,35,1013.78
2014,09,22,08,36,1013.82
2014,09,22,08,37,1013.85
2014,09,22,08,38,1013.92
2014,09,22,08,39,1013.95
2014,09,22,08,40,1013.92
2014,09,22,08,41,1013.95
2014,09,22,08,42,1013.95
2014,09,22,08,43,1013.99
2014,09,22,08,44,1014.02
2014,09,22,08,45,1014.05
2014,09,22,08,46,1014.05
2014,09,22,08,47,1014.02
2014,09,22,08,48,1014.05
2014,09,22,08,49,1014.05
2014,09,22,08,50,1014.02
2014,09,22,08,51,1014.02
2014,09,22,08,52,1014.02
2014,09,22,08,53,1014.02
2014,09,22,08,54,1014.05
2014,09,22,08,55,1014.09
2014,09,22,08,56,1014.05
2014,09,22,08,57,1014.12
2014,09,22,08,58,1014.19
2014,09,22,08,59,1014.16
2014,09,22,09,00,1014.16
2014,09,22,09,01,1014.19
2014,09,22,09,02,1014.19
2014,09,22,09,03,1014.26
2014,09,22,09,04,1014.26
2014,09,22,09,05,1014.33
2014,09,22,09,06,1014.33
2014,09,22,09,07,1014.39
2014,09,22,09,08,1014.43
2014,09,22,09,09,1014.39
2014,09,22,09,10,1014.43
2014,09,22,09,11,1014.46
2014,09,22,09,12,1014.49
2014,09,22,09,13,1014.53
2014,09,22,09,14,1014.56
2014,09,22,09,15,1014.60
2014,09,22,09,16,1014.66
2014,09,22,09,17,1014.73
2014,09,22,09,18,1014.70
2014,09,22,09,19,1014.80
2014,09,22,09,20,1014.80
2014,09,22,09,21,1014.83
2014,09,22,09,22,1014.83
2014,09,22,09,23,1014.90
2014,09,22,09,24,1014.87
2014,09,22,09,25,1014.93
2014,09,22,09,26,1014.90
2014,09,22,09,27,1014.93
2014,09,22,09,28,1014.97
2014,09,22,09,29,1014.97
2014,09,22,09,30,1014.97
2014,09,22,09,31,1015.00
2014,09,22,09,32,1015.04
2014,09,22,09,33,1015.10
2014,09,22,09,34,1015.07
2014,09,22,09,35,1015.04
2014,09,22,09,36,1015.07
2014,09,22,09,37,1015.04
2014,09,22,09,38,1015.04
2014,09,22,09,39,1015.04
2014,09,22,09,40,1015.00
2014,09,22,09,41,1015.04
2014,09,22,09,42,1014.97
2014,09,22,09,43,1014.93
2014,09,22,09,44,1014.97
2014,09,22,09,45,1014.97
2014,09,22,09,46,1014.93
2014,09,22,09,47,1014.97
2014,09,22,09,48,1014.93
2014,09,22,09,49,1014.93
2014,09,22,09,50,1014.97
2014,09,22,09,51,1014.93
2014,09,22,09,52,1014.93
2014,09,22,09,53,1014.97
2014,09,22,09,54,1015.00
2014,09,22,09,55,1015.04
2014,09,22,09,56,1015.07
2014,09,22,09,57,1015.04
2014,09,22,09,58,1015.10
2014,09,22,09,59,1015.14
2014,09,22,10,00,1015.14
2014,09,22,10,01,1015.17
2014,09,22,10,02,1015.17
2014,09,22,10,03,1015.17
2014,09,22,10,04,1015.17
2014,09,22,10,05,1015.10
2014,09,22,10,06,1015.10
2014,09,22,10,07,1015.10
2014,09,22,10,08,1015.14
2014,09,22,10,09,1015.14
2014,09,22,10,10,1015.10
2014,09,22,10,11,1015.17
2014,09,22,10,12,1015.10
2014,09,22,10,13,1015.17
2014,09,22,10,14,1015.17
2014,09,22,10,15,1015.21
2014,09,22,10,16,1015.24
2014,09,22,10,17,1015.24
2014,09,22,10,18,1015.24
2014,09,22,10,19,1015.24
2014,09,22,10,20,1015.27
2014,09,22,10,21,1015.24
2014,09,22,10,22,1015.31
2014,09,22,10,23,1015.31
2014,09,22,10,24,1015.24
2014,09,22,10,25,1015.24
2014,09,22,10,26,1015.27
2014,09,22,10,27,1015.27
2014,09,22,10,28,1015.27
2014,09,22,10,29,1015.31
2014,09,22,10,30,1015.31
2014,09,22,10,31,1015.34
2014,09,22,10,32,1015.34
2014,09,22,10,33,1015.34
2014,09,22,10,34,1015.34
2014,09,22,10,35,1015.34
2014,09,22,10,36,1015.31
2014,09,22,10,37,1015.31
2014,09,22,10,38,1015.34
2014,09,22,10,39,1015.34
2014,09,22,10,40,1015.31
2014,09,22,10,41,1015.31
2014,09,22,10,42,1015.34
2014,09,22,10,43,1015.31
2014,09,22,10,44,1015.34
2014,09,22,10,45,1015.44
2014,09,22,10,46,1015.44
2014,09,22,10,47,1015.48
2014,09,22,10,48,1015.51
2014,09,22,10,49,1015.48
2014,09,22,10,50,1015.51
2014,09,22,10,51,1015.48
2014,09,22,10,52,1015.48
2014,09,22,10,53,1015.51
2014,09,22,10,54,1015.44
2014,09,22,10,55,1015.44
2014,09,22,10,56,1015.41
2014,09,22,10,57,1015.38
2014,09,22,10,58,1015.34
2014,09,22,10,59,1015.34
2014,09,22,11,00,1015.34
2014,09,22,11,01,1015.38
2014,09,22,11,02,1015.31
2014,09,22,11,03,1015.31
2014,09,22,11,04,1015.31
2014,09,22,11,05,1015.24
2014,09,22,11,06,1015.24
2014,09,22,11,07,1015.24
2014,09,22,11,08,1015.24
2014,09,22,11,09,1015.24
2014,09,22,11,10,1015.27
2014,09,22,11,11,1015.31
2014,09,22,11,12,1015.31
2014,09,22,11,13,1015.31
2014,09,22,11,14,1015.27
2014,09,22,11,15,1015.27
2014,09,22,11,16,1015.24
2014,09,22,11,17,1015.24
2014,09,22,11,18,1015.24
2014,09,22,11,19,1015.27
2014,09,22,11,20,1015.27
2014,09,22,11,21,1015.34
2014,09,22,11,22,1015.38
2014,09,22,11,23,1015.38
2014,09,22,11,24,1015.38
2014,09,22,11,25,1015.38
2014,09,22,11,26,1015.41
2014,09,22,11,27,1015.38
2014,09,22,11,28,1015.31
2014,09,22,11,29,1015.34
2014,09,22,11,30,1015.38
2014,09,22,11,31,1015.44
2014,09,22,11,32,1015.41
2014,09,22,11,33,1015.41
2014,09,22,11,34,1015.44
2014,09,22,11,35,1015.44
2014,09,22,11,36,1015.44
2014,09,22,11,37,1015.44
2014,09,22,11,38,1015.48
2014,09,22,11,39,1015.51
2014,09,22,11,40,1015.54
2014,09,22,11,41,1015.51
2014,09,22,11,42,1015.54
2014,09,22,11,43,1015.54
2014,09,22,11,44,1015.51
2014,09,22,11,45,1015.48
2014,09,22,11,46,1015.48
2014,09,22,11,47,1015.44
2014,09,22,11,48,1015.38
2014,09,22,11,49,1015.31
2014,09,22,11,50,1015.21
2014,09,22,11,51,1015.21
2014,09,22,11,52,1015.24
2014,09,22,11,53,1015.24
2014,09,22,11,54,1015.27
2014,09,22,11,55,1015.38
2014,09,22,11,56,1015.41
2014,09,22,11,57,1015.44
2014,09,22,11,58,1015.44
2014,09,22,11,59,1015.44
2014,09,22,12,00,1015.38
2014,09,22,12,01,1015.41
2014,09,22,12,02,1015.44
2014,09,22,12,03,1015.48
2014,09,22,12,04,1015.41
2014,09,22,12,05,1015.44
2014,09,22,12,06,1015.48
2014,09,22,12,07,1015.44
2014,09,22,12,08,1015.44
2014,09,22,12,09,1015.48
2014,09,22,12,10,1015.44
2014,09,22,12,11,1015.44
2014,09,22,12,12,1015.44
2014,09,22,12,13,1015.51
2014,09,22,12,14,1015.51
2014,09,22,12,15,1015.54
2014,09,22,12,16,1015.54
2014,09,22,12,17,1015.54
2014,09,22,12,18,1015.54
2014,09,22,12,19,1015.54
2014,09,22,12,20,1015.51
2014,09,22,12,21,1015.58
2014,09,22,12,22,1015.51
2014,09,22,12,23,1015.48
2014,09,22,12,24,1015.48
2014,09,22,12,25,1015.38
2014,09,22,12,26,1015.34
2014,09,22,12,27,1015.27
2014,09,22,12,28,1015.24
2014,09,22,12,29,1015.24
2014,09,22,12,30,1015.27
2014,09,22,12,31,1015.27
2014,09,22,12,32,1015.34
2014,09,22,12,33,1015.48
2014,09,22,12,34,1015.54
2014,09,22,12,35,1015.61
2014,09,22,12,36,1015.65
2014,09,22,12,37,1015.58
2014,09,22,12,38,1015.58
2014,09,22,12,39,1015.54
2014,09,22,12,40,1015.58
2014,09,22,12,41,1015.61
2014,09,22,12,42,1015.65
2014,09,22,12,43,1015.61
2014,09,22,12,44,1015.68
2014,09,22,12,45,1015.65
2014,09,22,12,46,1015.61
2014,09,22,12,47,1015.61
2014,09,22,12,48,1015.61
2014,09,22,12,49,1015.71
2014,09,22,12,50,1015.58
2014,09,22,12,51,1015.65
2014,09,22,12,52,1015.58
2014,09,22,12,53,1015.61
2014,09,22,12,54,1015.58
2014,09,22,12,55,1015.58
2014,09,22,12,56,1015.61
2014,09,22,12,57,1015.58
2014,09,22,12,58,1015.68
2014,09,22,12,59,1015.54
2014,09,22,13,00,1015.58
2014,09,22,13,01,1015.54
2014,09,22,13,02,1015.54
2014,09,22,13,03,1015.44
2014,09,22,13,04,1015.48
2014,09,22,13,05,1015.48
2014,09,22,13,06,1015.41
2014,09,22,13,07,1015.28
2014,09,22,13,08,1015.17
2014,09,22,13,09,1015.01
2014,09,22,13,10,1014.97
2014,09,22,13,11,1014.67
2014,09,22,13,12,1014.53
2014,09,22,13,13,1014.43
2014,09,22,13,14,1014.36
2014,09,22,13,15,1014.19
2014,09,22,13,16,1014.16
2014,09,22,13,17,1014.03
2014,09,22,13,18,1014.05
2014,09,22,13,19,1014.02
2014,09,22,13,20,1014.16
2014,09,22,13,21,1014.29
2014,09,22,13,22,1014.48
2014,09,22,13,23,1014.62
2014,09,22,13,24,1014.83
2014,09,22,13,25,1015.04
2014,09,22,13,26,1015.14
2014,09,22,13,27,1015.21
2014,09,22,13,28,1015.24
2014,09,22,13,29,1015.27
2014,09,22,13,30,1015.31
2014,09,22,13,31,1015.41
2014,09,22,13,32,1015.41
2014,09,22,13,33,1015.48
2014,09,22,13,34,1015.48
2014,09,22,13,35,1015.48
2014,09,22,13,36,1015.51
2014,09,22,13,37,1015.44
2014,09,22,13,38,1015.44
2014,09,22,13,39,1015.38
2014,09,22,13,40,1015.31
2014,09,22,13,41,1015.34
2014,09,22,13,42,1015.34
2014,09,22,13,43,1015.31
2014,09,22,13,44,1015.31
2014,09,22,13,45,1015.24
2014,09,22,13,46,1015.21
2014,09,22,13,47,1015.17
2014,09,22,13,48,1015.17
2014,09,22,13,49,1015.10
2014,09,22,13,50,1015.14
2014,09,22,13,51,1015.17
2014,09,22,13,52,1015.17
2014,09,22,13,53,1015.17
2014,09,22,13,54,1015.14
2014,09,22,13,55,1015.14
2014,09,22,13,56,1015.07
2014,09,22,13,57,1015.10
2014,09,22,13,58,1015.07
2014,09,22,13,59,1015.04
2014,09,22,14,00,1015.00
2014,09,22,14,01,1014.97
2014,09,22,14,02,1014.97
2014,09,22,14,03,1015.04
2014,09,22,14,04,1015.07
2014,09,22,14,05,1015.14
2014,09,22,14,06,1015.14
2014,09,22,14,07,1015.14
2014,09,22,14,08,1015.10
2014,09,22,14,09,1015.10
2014,09,22,14,10,1015.07
2014,09,22,14,11,1015.07
2014,09,22,14,12,1015.04
2014,09,22,14,13,1015.07
2014,09,22,14,14,1015.04
2014,09,22,14,15,1015.00
2014,09,22,14,16,1015.07
2014,09,22,14,17,1015.10
2014,09,22,14,18,1015.07
2014,09,22,14,19,1015.04
2014,09,22,14,20,1015.07
2014,09,22,14,21,1015.04
2014,09,22,14,22,1015.10
2014,09,22,14,23,1015.10
2014,09,22,14,24,1015.17
2014,09,22,14,25,1015.07
2014,09,22,14,26,1015.10
2014,09,22,14,27,1015.10
2014,09,22,14,28,1015.10
2014,09,22,14,29,1015.14
2014,09,22,14,30,1015.17
2014,09,22,14,31,1015.14
2014,09,22,14,32,1015.21
2014,09,22,14,33,1015.21
2014,09,22,14,34,1015.21
2014,09,22,14,35,1015.24
2014,09,22,14,36,1015.24
2014,09,22,14,37,1015.27
2014,09,22,14,38,1015.31
2014,09,22,14,39,1015.34
2014,09,22,14,40,1015.31
2014,09,22,14,41,1015.31
2014,09,22,14,42,1015.31
2014,09,22,14,43,1015.31
2014,09,22,14,44,1015.34
2014,09,22,14,45,1015.31
2014,09,22,14,46,1015.31
2014,09,22,14,47,1015.27
2014,09,22,14,48,1015.21
2014,09,22,14,49,1015.14
2014,09,22,14,50,1015.07
2014,09,22,14,51,1015.00
2014,09,22,14,52,1014.97
2014,09,22,14,53,1014.97
2014,09,22,14,54,1015.00
2014,09,22,14,55,1015.07
2014,09,22,14,56,1015.14
2014,09,22,14,57,1015.24
2014,09,22,14,58,1015.38
2014,09,22,14,59,1015.48
2014,09,22,15,00,1015.54
2014,09,22,15,01,1015.54
2014,09,22,15,02,1015.51
2014,09,22,15,03,1015.58
2014,09,22,15,04,1015.61
2014,09,22,15,05,1015.61
2014,09,22,15,06,1015.61
2014,09,22,15,07,1015.58
2014,09,22,15,08,1015.51
2014,09,22,15,09,1015.44
2014,09,22,15,10,1015.41
2014,09,22,15,11,1015.48
2014,09,22,15,12,1015.51
2014,09,22,15,13,1015.51
2014,09,22,15,14,1015.54
2014,09,22,15,15,1015.51
2014,09,22,15,16,1015.51
2014,09,22,15,17,1015.48
2014,09,22,15,18,1015.44
2014,09,22,15,19,1015.41
2014,09,22,15,20,1015.44
2014,09,22,15,21,1015.44
2014,09,22,15,22,1015.48
2014,09,22,15,23,1015.58
2014,09,22,15,24,1015.61
2014,09,22,15,25,1015.65
2014,09,22,15,26,1015.61
2014,09,22,15,27,1015.61
2014,09,22,15,28,1015.54
2014,09,22,15,29,1015.51
2014,09,22,15,30,1015.48
2014,09,22,15,31,1015.41
2014,09,22,15,32,1015.41
2014,09,22,15,33,1015.38
2014,09,22,15,34,1015.25
2014,09,22,15,35,1015.17
2014,09,22,15,36,1015.14
2014,09,22,15,37,1015.14
2014,09,22,15,38,1015.17
2014,09,22,15,39,1015.21
2014,09,22,15,40,1015.21
2014,09,22,15,41,1015.17
2014,09,22,15,42,1015.14
2014,09,22,15,43,1015.10
2014,09,22,15,44,1015.07
2014,09,22,15,45,1015.07
2014,09,22,15,46,1015.17
2014,09,22,15,47,1015.17
2014,09,22,15,48,1015.27
2014,09,22,15,49,1015.31
2014,09,22,15,50,1015.34
2014,09,22,15,51,1015.31
2014,09,22,15,52,1015.27
2014,09,22,15,53,1015.24
2014,09,22,15,54,1015.21
2014,09,22,15,55,1015.10
2014,09,22,15,56,1015.14